Location: Champourcin
(44.1697°N, 6.3886°E)
Time: 09:37:09
(UTC+00:00)

Daily predictions for brighter satellites

Satellite Brightness Start Highest point End
(mag) Time Altitude Azimuth Time Altitude Azimuth Time Altitude Azimuth
Cosmos 968 Rocket 4.2 19:30:04 10° SSE 19:34:38 33° E 19:39:11 10° NE
Cosmos 1741 Rocket 4.4 19:32:18 10° SSW 19:37:30 72° WNW 19:42:44 10° NNE
Cosmos 2016 Rocket 4.3 19:32:07 10° S 19:38:28 80° W 19:44:53 10° N
Resurs 1-3 3.7 19:36:18 10° SSE 19:40:41 86° W 19:45:06 10° NNW
USA 238 DEB 4.2 19:34:56 10° NNW 19:42:07 59° NE 19:49:40 10° SE
USA 238 4.2 19:35:03 10° NNW 19:42:14 58° NE 19:49:46 10° SE
BREEZE-M DEB (TANK) 3.4 19:42:15 10° WNW 19:44:25 26° N 19:46:29 10° ENE
CENTAUR R/B 3.4 19:37:51 10° NW 19:46:08 85° NE 19:55:14 10° SE
Cosmos 1400 Rocket 3.6 19:43:01 10° NNW 19:46:48 51° W 19:50:33 10° S
ISS -1.5 19:45:06 10° WNW 19:47:59 26° NNW 19:50:52 10° NE
MetOp-A 4.3 19:44:23 10° S 19:48:27 49° W 19:52:18 10° NNW
Cosmos 2233 Rocket 4.0 19:42:25 10° S 19:48:42 74° E 19:55:02 10° NNE
Cosmos 1544 3.0 19:46:15 10° N 19:49:47 64° E 19:53:16 10° SSE
Cosmos 2227 Rocket 3.1 19:46:27 10° NNW 19:51:42 36° NE 19:56:42 11° ESE
Ariane Rocket 3.3 19:47:18 10° SE 19:52:12 52° ENE 19:57:08 10° N
CZ-4 R/B 4.4 19:50:54 10° WSW 19:52:33 12° W 19:54:11 10° WNW
SL-4 R/B 3.6 19:48:47 10° NW 19:53:02 35° N 19:57:04 10° ENE
JB-3 4.5 19:48:58 10° NNE 19:53:08 90° ESE 19:57:18 10° SSW
IGS 5A 4.1 19:49:54 10° S 19:53:58 56° W 19:58:03 10° NNW
SPOT 3 Rocket 4.4 19:49:49 10° SE 19:54:27 35° ENE 19:59:06 10° N
Terra 3.8 19:52:01 10° E 19:54:34 15° ENE 19:57:07 10° NNE
Resurs 01 Rocket 1.7 19:51:10 10° SSE 19:55:32 68° ENE 19:59:56 10° N
Cosmos 1666 Rocket 3.7 19:52:13 10° N 19:56:34 60° E 20:00:55 10° SSE
PSLV R/B 3.8 19:53:51 10° NNE 19:57:55 84° ESE 20:01:57 10° SSW
Cosmos 1805 Rocket 4.4 19:53:41 10° NNW 19:58:02 53° W 20:02:20 10° S
Meteor 1-14 Rocket 4.4 19:55:01 10° NNW 20:00:59 84° W 20:06:48 10° S
Cosmos 1656 3.6 19:56:27 10° SSW 20:01:58 66° ESE 20:07:28 10° NNE
Genesis I 3.3 19:59:39 10° SW 20:03:39 84° NW 20:07:46 10° NE
Meteor 1-10 Rocket 4.3 19:58:26 10° S 20:03:48 55° E 20:09:15 10° NNE
BREEZE M DEB (TANK) 3.7 20:00:44 10° WNW 20:03:59 54° NNE 20:13:52 10° E
Cosmos 1980 Rocket 3.7 20:01:44 12° SE 20:04:14 16° E 20:07:33 10° ENE
Cosmos 1340 4.1 20:03:28 14° SE 20:05:20 20° E 20:08:07 10° NE
Cosmos 1666 4.2 20:03:09 10° NNW 20:06:40 36° W 20:10:08 10° SSW
Cosmos 1570 Rocket 4.0 20:02:27 10° NNW 20:07:43 77° ENE 20:12:28 13° SSE
Cosmos 1633 Rocket 3.1 20:05:05 10° N 20:09:28 68° E 20:13:27 12° SSE
COSMOS 2487 4.3 20:09:06 10° NW 20:11:39 23° WSW 20:14:11 10° SSW
Cosmos 1151 Rocket 3.1 20:07:40 10° S 20:11:58 81° W 20:16:15 10° N
BREEZE-M DEB (TANK) 4.1 20:10:50 10° W 20:14:05 64° NNW 20:24:13 10° ENE
Cosmos 1470 Rocket 4.0 20:11:30 10° N 20:15:41 46° ENE 20:18:42 17° SE
Meteor 1-27 Rocket 4.1 20:12:24 10° SSE 20:17:48 46° E 20:23:21 10° NNE
Cosmos 44 3.2 20:14:05 10° NW 20:18:24 68° WSW 20:21:44 16° SSE
SJ 16-02 3.3 20:19:14 12° E 20:19:31 12° E 20:21:03 10° ENE
Cosmos 1486 Rocket 4.5 20:17:09 10° S 20:22:06 41° ESE 20:27:02 10° NE
Cosmos 1315 Rocket 2.9 20:18:38 10° NNW 20:22:45 77° W 20:26:19 13° S
Cosmos 1697 Rocket 2.9 20:19:30 10° S 20:24:54 48° ESE 20:30:20 10° NE
USA 215 4.2 20:20:24 10° ENE 20:25:34 24° SE 20:30:42 10° S
Cosmos 1814 Rocket 4.5 20:20:47 10° NNW 20:25:48 56° WSW 20:30:36 11° S
Spot 2 Rocket 4.1 20:22:55 18° SE 20:26:19 42° ENE 20:31:04 10° N
Meteor 1-11 Rocket 3.9 20:21:12 10° N 20:27:12 70° ENE 20:31:59 16° SSE
Cosmos 2297 Rocket 2.2 20:23:55 10° NNW 20:29:36 83° WSW 20:33:58 17° SSE
Cosmos 1515 Rocket 3.7 20:26:44 16° SSE 20:30:00 51° E 20:34:16 10° NNE
Nadezhda 4 Rocket 4.5 20:28:09 10° N 20:34:07 44° ENE 20:38:02 20° SE
BREEZE-M DEB (TANK) 3.5 20:31:44 10° W 20:34:25 35° NNW 20:36:28 10° NE
USA 245 4.3 20:33:02 17° SSE 20:37:15 80° ENE 20:43:30 10° N
ARIANE 5 R/B 3.9 20:36:20 19° ESE 20:38:31 28° ENE 20:42:20 10° N
SPOT 1/Viking Rocket 4.1 20:35:51 11° S 20:40:50 56° W 20:45:56 10° NNW
Geosat FO 4.4 20:39:12 27° SSE 20:40:58 88° WSW 20:44:21 10° NNW
Cosmos 1072 Rocket 4.4 20:36:08 11° S 20:42:03 73° E 20:48:09 10° NNE
ATLAS 2AS CENTAUR R/B 3.7 20:40:06 17° SSE 20:44:41 30° ESE 20:51:06 10° NE
CARTOSAT-1 3.6 20:42:03 20° S 20:45:01 78° WSW 20:49:22 10° NNW
NOSS 3-4 (A) 3.2 20:43:15 10° SSW 20:48:55 82° ESE 20:55:03 10° NE
NOSS 3-4 (C) 3.2 20:43:19 10° SSW 20:49:00 81° SE 20:55:09 10° NE
Cosmos 1503 Rocket 4.4 20:47:24 22° SSE 20:50:19 43° ESE 20:55:20 10° NNE
Aureole 1 Rocket 2.2 20:53:00 29° S 20:54:34 67° ESE 20:57:37 10° NNE
RESURS DK-1 4.2 21:00:59 17° E 21:00:59 17° E 21:02:51 10° ENE
Cosmos 2219 3.2 20:55:03 10° NNW 21:00:42 78° WSW 21:03:55 27° SSE
Cosmos 921 Rocket 3.6 20:57:21 10° N 21:01:44 47° ENE 21:03:26 31° ESE
CZ-4B R/B 4.3 21:01:01 10° NNW 21:02:57 15° WNW 21:04:52 10° WSW
SPOT 5 3.1 21:03:09 26° SSE 21:06:14 89° W 21:11:30 10° NNW
Cosmos 1536 3.3 21:04:46 10° NNW 21:08:42 55° W 21:10:43 26° SSW
Cosmos 389 Rocket 2.5 21:05:32 10° NNW 21:09:02 74° W 21:10:02 43° S
Cosmos 2034 Rocket 4.0 21:05:04 21° S 21:09:26 76° E 21:15:47 10° N
Cosmos 1184 Rocket 2.7 21:09:25 47° SSW 21:10:08 72° W 21:13:10 10° N
Helios 1A Rocket 3.3 21:08:57 28° SSW 21:10:49 57° WSW 21:14:46 10° NNW
Cosmos 2082 3.8 21:05:29 10° NNW 21:11:08 68° ENE 21:13:46 32° SE
Meteor 2-14 Rocket 4.4 21:06:22 10° N 21:12:27 72° E 21:15:35 30° SSE
OAO 3 Rocket 4.2 21:09:21 10° SW 21:13:12 28° S 21:13:12 28° S
Okean 1 3.2 21:14:48 44° SSE 21:15:56 70° E 21:19:57 10° NNE
ERS-1 Rocket 3.0 21:13:55 31° S 21:16:23 82° WSW 21:21:27 10° NNW
Cosmos 2292 Rocket 3.9 21:14:17 10° N 21:16:59 30° ENE 21:16:59 30° ENE
Geosat 4.2 21:17:27 33° SE 21:19:35 63° ENE 21:24:34 10° NNW
Meteor 1-19 Rocket 4.0 21:17:59 29° S 21:20:50 74° E 21:26:15 10° NNE
ATLAS 3B R/B 4.2 21:16:13 10° NNW 21:22:39 32° NE 21:29:10 10° E
Cosmos 1743 3.7 21:20:34 10° NNW 21:24:07 39° W 21:25:38 27° SW
ISS -1.5 21:22:41 10° NW 21:25:29 24° N 21:28:01 11° ENE
Cosmos 2263 Rocket 2.7 21:21:36 10° NNW 21:27:00 46° ENE 21:29:18 30° ESE
Cosmos 2344 3.4 21:20:52 10° SW 21:28:26 89° SE 21:36:06 10° NE
Terra 1.9 21:29:55 38° S 21:31:43 74° WSW 21:36:30 10° NNW
Cosmos 1933 Rocket 4.5 21:27:58 10° NNW 21:32:13 44° W 21:34:14 26° SSW
Resurs 01 Rocket 4.3 21:30:46 10° WSW 21:32:29 12° W 21:34:12 10° WNW
SL-4 R/B 2.0 21:28:32 10° WNW 21:33:01 88° NNE 21:33:59 53° ESE
Cosmos 2227 Rocket 3.2 21:30:34 10° NW 21:35:43 37° WSW 21:38:32 23° SSW
Cosmos 1975 3.1 21:32:49 10° N 21:36:49 52° E 21:37:13 50° E
SWAS 4.4 21:32:53 10° NNW 21:37:12 74° ENE 21:38:01 56° SE
Meteor 2-4 Rocket 3.9 21:37:43 39° SSE 21:39:39 58° E 21:45:16 10° NNE
Cosmos 1733 Rocket 3.8 21:39:01 10° N 21:43:12 39° ENE 21:43:44 37° E
Cosmos 2369 3.9 21:40:08 14° SW 21:45:05 69° WNW 21:50:45 10° NNE
Cosmos 1980 Rocket 2.3 21:43:23 19° SSW 21:47:30 76° WNW 21:53:12 10° NNE
Meteor 2-8 Rocket 4.4 21:47:03 41° SSE 21:49:11 65° E 21:55:13 10° NNE
Cosmos 2195 Rocket 4.5 21:43:35 10° N 21:49:57 85° W 21:52:36 38° S
Cosmos 783 Rocket 4.4 21:45:01 10° NNW 21:50:15 86° WSW 21:51:38 50° SSE
Cosmos 1862 Rocket 4.2 21:51:03 40° E 21:51:04 40° E 21:55:16 10° NNE
Cosmos 2322 Rocket 3.5 21:53:11 24° E 21:53:11 24° E 21:57:14 10° NE
Cosmos 1354 Rocket 4.3 21:51:12 24° SW 21:54:23 66° WNW 21:59:40 10° NNE
Cosmos 2228 Rocket 3.6 21:55:45 37° SW 21:57:19 58° W 22:01:51 10° N
SJ 16-02 1.5 21:56:08 43° SW 21:57:27 67° WNW 22:01:49 10° NNE
Meteor 2-21 Rocket 4.5 21:51:33 10° NNW 21:57:36 73° W 22:00:00 39° S
Meteor 1-18 Rocket 4.3 21:56:11 36° SSW 21:58:38 80° W 22:04:20 10° N
Cosmos 1777 Rocket 3.9 22:01:35 43° SSW 22:03:20 86° WNW 22:08:37 10° NNE
USA 81 4.0 22:03:54 49° S 22:05:23 85° W 22:10:42 10° N
SAR-Lupe-4 4.3 22:03:18 10° N 22:06:47 48° WNW 22:07:07 46° W
Meteor 2-15 4.3 22:04:55 45° S 22:06:55 82° E 22:13:01 10° N
Cosmos 1844 Rocket 4.4 22:04:02 10° N 22:08:33 24° NE 22:11:24 17° E
USA 215 3.1 22:02:32 10° NE 22:09:07 86° SE 22:15:43 10° SW
Cosmos 2227 4.3 22:05:04 10° NNW 22:10:50 68° ENE 22:12:24 47° SE
Iridium 2 4.1 22:07:35 10° N 22:10:50 53° NE 22:10:50 53° NE
Cosmos 1092 Rocket 4.3 22:07:00 10° NNW 22:13:04 58° W 22:15:26 36° SSW
ARIANE 5 R/B 3.9 22:13:52 28° WSW 22:14:51 31° W 22:18:53 10° NNW
Cosmos 773 Rocket 4.4 22:10:51 10° NNW 22:15:55 52° WSW 22:16:57 45° SW
Meteor 1-4 Rocket 3.8 22:13:56 10° N 22:16:23 31° NE 22:16:23 31° NE
Cosmos 1634 Rocket 4.1 22:14:36 36° SSW 22:17:17 69° W 22:23:29 10° N
Cosmos 2142 Rocket 4.5 22:16:09 47° S 22:18:11 81° E 22:24:36 10° N
Cosmos 1726 4.2 22:17:22 10° NNE 22:19:37 19° ENE 22:19:37 19° ENE
Cosmos 2219 Rocket 4.4 22:25:00 10° E 22:25:00 10° E 22:25:20 10° E
SL-16 R/B 2.1 22:27:38 58° SSE 22:28:20 64° ESE 22:33:57 10° NNE
Iridium 4 Rocket 3.8 22:26:21 10° N 22:30:35 44° E 22:30:35 44° E
Cosmos 1733 3.7 22:30:15 10° N 22:33:22 53° NNE 22:33:22 53° NNE
ATLAS 2AS CENTAUR R/B 3.2 22:27:23 10° SW 22:35:11 70° NW 22:42:44 10° NE
ATLAS CENTAUR R/B 4.2 22:32:01 10° N 22:35:13 17° NNE 22:38:20 10° ENE
Cosmos 44 Rocket 3.1 22:30:40 10° NNW 22:35:24 81° NE 22:35:37 77° E
Cosmos 1346 Rocket 3.5 22:35:44 46° W 22:35:52 46° WNW 22:39:46 10° N
RESURS DK-1 3.4 22:36:47 36° W 22:37:40 42° WNW 22:41:37 10° NNE
Cosmos 1538 Rocket 3.8 22:34:28 10° NNW 22:39:45 78° WSW 22:40:18 69° SSW
ADEOS Rocket 3.6 22:40:53 34° ESE 22:42:24 41° ENE 22:47:48 10° N
USA 267 3.3 22:40:37 32° ESE 22:43:57 76° NE 22:50:30 10° NW
Okean 1-7 3.2 22:54:08 63° ENE 22:54:08 63° ENE 22:58:06 10° NNE
SL-24 R/B - RUBIN 2 3.7 22:51:15 10° NW 22:55:13 68° WNW 22:55:13 68° WNW
Cosmos 923 Rocket 4.1 22:53:04 10° NNW 22:58:24 69° ENE 22:59:07 61° ESE
Cosmos 1703 Rocket 3.7 23:00:20 69° NE 23:00:20 69° NE 23:04:26 10° NNE
Cosmos 2360 Rocket 2.4 23:00:23 53° ESE 23:00:31 53° ESE 23:06:00 10° NE
ISS -1.7 22:59:22 10° NW 23:00:56 25° NW 23:00:56 25° NW
Cosmos 1842 4.4 23:06:04 36° NE 23:06:04 36° NE 23:08:49 10° NNE
Cosmos 2242 Rocket 3.8 23:09:15 67° ENE 23:09:15 67° ENE 23:13:31 10° NNE
Cosmos 2263 Rocket 3.4 23:06:01 10° NW 23:10:38 27° WSW 23:10:59 27° WSW
Spot 4 4.3 23:11:37 48° W 23:11:38 48° W 23:16:18 10° NNW
Cosmos 1937 Rocket 3.7 23:13:32 55° ESE 23:13:32 55° ESE 23:18:35 10° NNE
ATLAS 3B R/B 2.8 23:06:42 10° NW 23:14:07 79° WSW 23:16:23 50° SSE
ASTEX 1 4.4 23:10:24 10° NNE 23:14:48 32° E 23:14:54 32° E
ALOS 2 2.8 23:15:18 64° WNW 23:15:18 64° WNW 23:19:19 10° NNW
Cosmos 1782 Rocket 3.7 23:11:38 10° N 23:15:37 66° NE 23:15:37 66° NE
Meteor 1-23 Rocket 4.1 23:16:52 67° S 23:17:41 84° E 23:23:33 10° NNE
Cosmos 2112 Rocket 4.1 23:13:50 10° NNW 23:19:11 67° ENE 23:19:52 60° ESE
Cosmos 2266 Rocket 4.0 23:13:11 10° NNW 23:19:26 69° W 23:20:37 56° SSW
Cosmos 1680 Rocket 3.4 23:16:36 10° NNW 23:21:56 81° ENE 23:22:24 73° SE
Okean 3 3.8 23:26:58 62° NW 23:26:58 62° NW 23:30:42 10° N
Cosmos 2333 Rocket 2.5 23:26:56 49° ESE 23:27:05 49° ESE 23:32:32 10° NE
Cosmos 1908 Rocket 4.3 23:23:26 10° NNW 23:27:06 43° WNW 23:27:06 43° WNW
Cosmos 2322 4.4 23:32:07 39° ESE 23:32:17 39° ESE 23:37:35 10° NE
ERS-2 3.5 23:29:58 10° N 23:32:44 34° NW 23:32:44 34° NW
Cosmos 1898 Rocket 3.6 23:35:22 63° WSW 23:36:01 71° WNW 23:41:22 10° NNE
Cosmos 2322 Rocket 2.7 23:34:57 41° WSW 23:36:30 53° WNW 23:42:00 10° NNE
Cosmos 1300 Rocket 3.8 23:36:11 10° N 23:40:11 65° NE 23:40:11 65° NE
Cosmos 858 Rocket 4.3 23:41:33 79° S 23:41:52 87° ESE 23:47:11 10° NNE
Sich 1 Rocket 4.2 23:37:49 10° N 23:42:02 47° ENE 23:42:02 47° ENE
Resurs 1-4 Rocket 4.3 23:45:40 10° ENE 23:48:06 13° E 23:49:28 12° ESE
Gblst 52 Del rocket 4.2 23:49:00 54° SW 23:50:30 88° SSE 23:56:11 10° ENE
USA 215 4.4 23:45:45 10° NE 23:51:46 41° NNW 23:57:48 10° W
Cosmos 1844 Rocket 2.7 23:47:21 10° NNW 23:52:51 59° WSW 23:53:02 59° WSW
Cosmos 1726 4.0 23:51:57 10° NNW 23:53:54 22° WNW 23:53:54 22° WNW
Cosmos 1674 3.8 23:56:22 38° NE 23:56:22 38° NE 23:59:05 10° NNE
